Tracking 23757 objects as of 26-Oct-2021
HD Live streaming from Space Station
objects crossing your sky now

SL-8 DEB *

Track SL-8 DEB * now!
10-day predictions


NORAD ID: 18510
Int'l Code: 1982-051F
Perigee: 719.8 km
Apogee: 736.3 km
Inclination: 74.0 °
Period: 99.2 minutes
Semi major axis: 7099 km
RCS: 0.0076 m2 (small)
Launch date: June 1, 1982
Source: Commonwealth of Independent States (former USSR) (CIS)
Launch site: PLESETSK MISSILE AND SPACE COMPLEX (PKMTR)

Note: This is SATELLITE DEBRIS
aabbcc
Your satellite tracking list
Your tracking list is empty




NASA's NSSDC Master Catalog

Two Line Element Set (TLE):
1 18510U 82051F   21299.32106723  .00000412  00000-0  11007-3 0  9997
2 18510  73.9933 346.9020 0011655 112.5707  11.7908 14.51447807842580
Source of the keplerian elements: AFSPC